TimeKST,TemperatureF,Dew PointF,Humidity,Sea Level PressureIn,VisibilityMPH,Wind Direction,Wind SpeedMPH,Gust SpeedMPH,PrecipitationIn,Events,Conditions,WindDirDegrees,DateUTC
12:00 AM,39.2,35.6,87,30.17,1.7,WSW,1.2,-,N/A,,Mist,240,2013-11-15 15:00:00
1:00 AM,37.4,35.6,93,30.17,1.2,South,1.2,-,N/A,,Mist,190,2013-11-15 16:00:00
2:00 AM,37.4,35.6,93,30.18,1.0,South,2.3,-,N/A,,Mist,170,2013-11-15 17:00:00
3:00 AM,37.4,35.6,93,30.17,1.0,SSE,3.5,-,N/A,,Mist,160,2013-11-15 18:00:00
4:00 AM,35.6,33.8,93,30.16,1.0,NW,1.2,-,N/A,,Mist,310,2013-11-15 19:00:00
5:00 AM,37.4,35.6,93,30.15,1.0,WNW,2.3,-,N/A,,Mist,300,2013-11-15 20:00:00
6:00 AM,37.4,37.4,100,30.15,-9999.0,SSW,3.5,-,N/A,Fog,Fog,210,2013-11-15 21:00:00
7:00 AM,35.6,35.6,100,30.15,0.5,South,2.3,-,N/A,Fog,Fog,170,2013-11-15 22:00:00
8:00 AM,37.4,35.6,93,30.16,0.2,SSW,3.5,-,N/A,Fog,Fog,210,2013-11-15 23:00:00
10:00 AM,41.0,37.4,87,30.16,1.5,South,5.8,-,N/A,,Scattered Clouds,190,2013-11-16 01:00:00
11:00 AM,46.4,39.2,76,30.14,2.5,South,6.9,-,N/A,,Scattered Clouds,180,2013-11-16 02:00:00
12:00 PM,46.4,39.2,76,30.10,-9999.0,SSE,6.9,-,N/A,,Partly Cloudy,160,2013-11-16 03:00:00
1:00 PM,48.2,39.2,71,30.06,-9999.0,SE,8.1,-,N/A,,Clear,130,2013-11-16 04:00:00
2:00 PM,50.0,39.2,66,30.04,-9999.0,ESE,4.6,-,N/A,,Clear,120,2013-11-16 05:00:00
3:00 PM,51.8,37.4,58,30.01,3.7,SE,4.6,-,N/A,,Haze,140,2013-11-16 06:00:00
4:00 PM,51.8,37.4,58,30.00,5.0,SSE,5.8,-,N/A,,Haze,150,2013-11-16 07:00:00
5:00 PM,51.8,35.6,54,29.99,5.0,SE,3.5,-,N/A,,Haze,140,2013-11-16 08:00:00
6:00 PM,48.2,37.4,66,29.98,3.7,SW,4.6,-,N/A,,Mostly Cloudy,220,2013-11-16 09:00:00
7:00 PM,46.4,37.4,71,29.97,3.7,South,8.1,-,N/A,,Mostly Cloudy,190,2013-11-16 10:00:00
8:00 PM,46.4,37.4,71,29.95,3.7,South,4.6,-,N/A,,Mostly Cloudy,180,2013-11-16 11:00:00
9:00 PM,44.6,35.6,71,29.93,3.7,SSW,6.9,-,N/A,,Mostly Cloudy,200,2013-11-16 12:00:00
10:00 PM,44.6,37.4,76,29.91,3.7,SSW,4.6,-,N/A,,Mostly Cloudy,200,2013-11-16 13:00:00
11:00 PM,44.6,35.6,71,29.88,3.7,SSW,5.8,-,N/A,,Mostly Cloudy,200,2013-11-16 14:00:00